QPF
0.00 0.01 0.01 0.01 0.03 0.01 0.02 0.04 0.02 0.01 0.05 0.01 0.01 0.01 0.01 0.00 0.00 0.00 0.00 0.00 0.00 0.00 0.00 0.00 0.00 0.00 0.00 0.00 0.00 0.00 0.00 0.00 0.00 0.00 0.00 0.02 0.08 0.04 0.00 0.01 0.00 0.00
0.01 0.03 0.02 0.02 0.05 0.11 0.16 0.30 0.22 0.17 0.09 0.02 0.09 0.13 0.12 0.04 0.03 0.00 0.00 0.00 0.00 0.00 0.00 0.00 0.00 0.00 0.00 0.00 0.00 0.00 0.00 0.00 0.00 0.00 0.02 0.02 0.04 0.05 0.00 0.00 0.00 0.00
0.06 0.06 0.06 0.09 0.17 0.11 0.33 0.39 0.74 0.30 0.16 0.13 0.35 0.34 0.56 0.21 0.16 0.00 0.00 0.00 0.00 0.00 0.00 0.00 0.00 0.00 0.01 0.01 0.00 0.00 0.00 0.00 0.00 0.00 0.00 0.01 0.00 0.02 0.05 0.00 0.00 0.00
0.21 0.08 0.02 0.02 0.02 0.10 0.57 1.19 0.42 0.42 0.50 0.71 0.53 0.30 0.23 0.21 0.02 0.00 0.00 0.00 0.00 0.00 0.00 0.00 0.00 0.00 0.00 0.00 0.00 0.00 0.00 0.00 0.00 0.00 0.00 0.05 0.01 0.00 0.00 0.00 0.00 0.00
0.10 0.03 0.01 0.01 0.06 0.37 0.78 0.71 0.45 0.88 0.40 0.13 0.12 0.06 0.02 0.07 0.04 0.02 0.00 0.00 0.00 0.00 0.00 0.02 0.05 0.26 0.19 0.10 0.01 0.01 0.00 0.00 0.00 0.00 0.00 0.02 0.01 0.00 0.01 0.01 0.00 0.00
0.07 0.03 0.01 0.03 0.11 0.54 0.43 0.50 0.51 0.05 0.00 0.02 0.01 0.01 0.02 0.23 0.23 0.03 0.01 0.00 0.00 0.00 0.00 0.01 0.02 0.08 0.14 0.23 0.18 0.09 0.06 0.00 0.00 0.00 0.00 0.00 0.00 0.00 0.01 0.00 0.00 0.00
0.06 0.04 0.03 0.03 0.01 0.03 0.23 0.03 0.01 0.01 0.01 0.00 0.01 0.02 0.02 0.02 0.05 0.09 0.03 0.04 0.22 0.13 0.02 0.00 0.00 0.04 0.07 0.12 0.29 0.20 0.07 0.00 0.00 0.00 0.00 0.00 0.00 0.00 0.02 0.06 0.03 0.01
0.06 0.15 0.02 0.01 0.01 0.03 0.14 0.00 0.01 0.02 0.01 0.01 0.01 0.01 0.02 0.02 0.01 0.01 0.03 0.12 0.09 0.20 0.15 0.08 0.00 0.00 0.03 0.13 0.19 0.10 0.04 0.00 0.00 0.00 0.00 0.00 0.00 0.00 0.01 0.00 0.00 0.01
0.09 0.05 0.04 0.07 0.05 0.02 0.00 0.00 0.00 0.02 0.02 0.01 0.01 0.01 0.01 0.01 0.01 0.00 0.01 0.00 0.00 0.01 0.04 0.04 0.00 0.00 0.01 0.03 0.06 0.05 0.00 0.00 0.00 0.00 0.00 0.00 0.00 0.00 0.00 0.00 0.00 0.00
0.10 0.09 0.09 0.09 0.05 0.03 0.01 0.00 0.01 0.01 0.01 0.01 0.01 0.01 0.01 0.01 0.01 0.00 0.00 0.00 0.00 0.00 0.01 0.00 0.00 0.00 0.00 0.00 0.00 0.00 0.00 0.00 0.00 0.00 0.00 0.00 0.00 0.00 0.00 0.00 0.00 0.00
0.08 0.07 0.05 0.07 0.06 0.03 0.02 0.01 0.01 0.01 0.01 0.01 0.01 0.00 0.00 0.00 0.00 0.00 0.00 0.00 0.00 0.00 0.00 0.00 0.00 0.00 0.00 0.00 0.00 0.00 0.00 0.00 0.00 0.00 0.00 0.00 0.00 0.00 0.00 0.00 0.00 0.00
0.02 0.02 0.01 0.02 0.02 0.02 0.01 0.01 0.01 0.01 0.01 0.01 0.01 0.00 0.00 0.00 0.00 0.00 0.00 0.00 0.00 0.00 0.00 0.00 0.00 0.00 0.00 0.00 0.00 0.00 0.00 0.00 0.00 0.00 0.00 0.00 0.00 0.00 0.00 0.00 0.00 0.00
0.01 0.01 0.01 0.01 0.01 0.01 0.01 0.01 0.01 0.01 0.01 0.01 0.01 0.00 0.00 0.00 0.00 0.00 0.00 0.00 0.00 0.00 0.00 0.00 0.00 0.00 0.00 0.00 0.00 0.00 0.00 0.00 0.00 0.00 0.00 0.00 0.00 0.00 0.00 0.00 0.00 0.00
0.00 0.00 0.00 0.00 0.00 0.00 0.00 0.01 0.01 0.01 0.01 0.01 0.00 0.01 0.01 0.04 0.10 0.04 0.09 0.17 0.11 0.28 0.17 0.10 0.00 0.00 0.00 0.00 0.00 0.00 0.00 0.00 0.00 0.00 0.00 0.00 0.00 0.00 0.00 0.00 0.00 0.00
0.00 0.00 0.00 0.00 0.00 0.00 0.00 0.01 0.01 0.01 0.01 0.01 0.01 0.01 0.00 0.01 0.13 0.09 0.48 0.31 0.23 0.17 0.12 0.02 0.00 0.00 0.00 0.00 0.00 0.00 0.00 0.00 0.00 0.00 0.00 0.00 0.00 0.00 0.00 0.00 0.00 0.00
0.00 0.00 0.00 0.01 0.01 0.01 0.02 0.00 0.01 0.01 0.07 0.01 0.06 0.22 0.07 0.01 0.03 0.23 0.02 0.01 0.01 0.00 0.00 0.00 0.00 0.00 0.00 0.00 0.00 0.00 0.00 0.00 0.00 0.00 0.00 0.00 0.00 0.00 0.00 0.00 0.00 0.00
0.00 0.01 0.02 0.02 0.02 0.09 0.09 0.01 0.01 0.02 0.02 0.01 0.07 0.25 0.21 0.03 0.02 0.08 0.03 0.02 0.01 0.00 0.00 0.00 0.00 0.00 0.00 0.00 0.00 0.00 0.00 0.00 0.00 0.00 0.00 0.00 0.00 0.00 0.00 0.00 0.00 0.00
0.00 0.01 0.02 0.03 0.04 0.14 0.22 0.10 0.07 0.22 0.37 0.32 0.21 0.15 0.11 0.13 0.04 0.03 0.02 0.02 0.00 0.00 0.00 0.00 0.00 0.00 0.00 0.00 0.00 0.00 0.00 0.00 0.00 0.00 0.00 0.00 0.00 0.00 0.00 0.00 0.00 0.00
0.00 0.11 0.12 0.08 0.10 0.14 0.15 0.09 0.12 0.07 0.15 0.20 0.32 0.34 0.20 0.19 0.41 0.06 0.05 0.01 0.02 0.01 0.00 0.00 0.00 0.00 0.00 0.00 0.00 0.00 0.00 0.00 0.00 0.00 0.00 0.00 0.00 0.00 0.00 0.00 0.00 0.00
0.00 0.02 0.06 0.07 0.13 0.14 0.12 0.06 0.05 0.10 0.15 0.26 0.24 0.27 0.20 0.14 0.03 0.02 0.04 0.02 0.02 0.01 0.00 0.00 0.00 0.00 0.00 0.00 0.00 0.00 0.00 0.00 0.00 0.00 0.00 0.00 0.00 0.00 0.00 0.00 0.00 0.00
0.00 0.02 0.02 0.08 0.13 0.23 0.17 0.06 0.05 0.07 0.11 0.12 0.14 0.18 0.25 0.05 0.01 0.01 0.00 0.01 0.00 0.00 0.00 0.00 0.00 0.00 0.00 0.00 0.00 0.00 0.00 0.00 0.00 0.00 0.00 0.00 0.00 0.00 0.00 0.00 0.00 0.00
0.00 0.00 0.00 0.02 0.10 0.19 0.23 0.20 0.17 0.09 0.15 0.09 0.09 0.17 0.26 0.20 0.01 0.00 0.00 0.00 0.00 0.00 0.00 0.00 0.00 0.00 0.00 0.00 0.00 0.00 0.00 0.00 0.00 0.00 0.00 0.00 0.00 0.00 0.00 0.00 0.00 0.00
0.00 0.00 0.00 0.01 0.03 0.10 0.23 0.29 0.29 0.20 0.22 0.11 0.11 0.16 0.28 0.23 0.01 0.00 0.00 0.00 0.00 0.00 0.00 0.00 0.00 0.00 0.00 0.00 0.00 0.00 0.00 0.00 0.00 0.00 0.00 0.00 0.00 0.00 0.00 0.00 0.00 0.00
0.00 0.00 0.02 0.01 0.00 0.01 0.13 0.30 0.49 0.42 0.32 0.17 0.17 0.29 0.27 0.13 0.03 0.01 0.00 0.00 0.00 0.00 0.00 0.00 0.00 0.00 0.00 0.00 0.00 0.00 0.00 0.00 0.00 0.00 0.00 0.00 0.00 0.00 0.00 0.00 0.00 0.00
0.00 0.00 0.00 0.02 0.02 0.01 0.02 0.07 0.13 0.27 0.22 0.20 0.14 0.30 0.27 0.12 0.03 0.01 0.00 0.00 0.00 0.00 0.00 0.00 0.00 0.00 0.00 0.00 0.00 0.00 0.00 0.00 0.00 0.01 0.00 0.00 0.00 0.00 0.00 0.00 0.00 0.00
0.01 0.00 0.00 0.00 0.01 0.02 0.01 0.02 0.04 0.14 0.18 0.18 0.21 0.24 0.30 0.09 0.01 0.00 0.00 0.00 0.00 0.00 0.00 0.00 0.00 0.00 0.00 0.00 0.00 0.00 0.00 0.00 0.00 0.00 0.00 0.02 0.00 0.02 0.18 0.15 0.12 0.03
MSLP
1015.82 1015.82 1015.85 1015.93 1016.02 1016.05 1016.09 1016.41 1016.61 1016.73 1016.78 1016.82 1016.93 1017.02 1017.14 1017.14 1017.17 1017.34 1017.38 1017.38 1017.38 1017.41 1017.46 1017.49 1017.53 1017.73 1017.90 1018.02 1018.17 1018.22 1018.29 1018.58 1018.85 1019.09 1019.46 1019.82 1020.05 1020.29 1020.53 1020.66 1020.70 1020.70
1015.85 1015.82 1015.82 1015.78 1015.90 1016.22 1016.34 1016.70 1016.70 1016.70 1016.58 1016.73 1016.90 1017.09 1017.14 1017.17 1017.26 1017.22 1017.26 1017.26 1017.26 1017.26 1017.29 1017.41 1017.49 1017.61 1017.73 1017.82 1018.02 1018.17 1018.22 1018.46 1018.78 1018.90 1019.46 1019.82 1019.97 1020.38 1020.53 1020.53 1020.58 1020.58
1015.53 1015.61 1015.70 1015.85 1015.90 1015.97 1016.26 1016.53 1016.66 1016.70 1016.85 1016.78 1016.90 1016.85 1016.85 1017.02 1017.34 1017.14 1017.09 1017.05 1017.09 1017.17 1017.22 1017.34 1017.46 1017.53 1017.70 1017.78 1017.93 1018.05 1018.14 1018.34 1018.61 1018.82 1019.17 1019.58 1019.78 1020.29 1020.38 1020.38 1020.34 1020.49
1015.14 1015.14 1015.22 1015.49 1015.70 1015.85 1016.22 1016.78 1016.70 1016.41 1016.34 1016.53 1016.58 1016.66 1016.78 1016.78 1016.78 1016.90 1016.97 1016.97 1016.97 1017.02 1017.14 1017.26 1017.41 1017.61 1017.82 1017.90 1018.02 1018.09 1018.14 1018.29 1018.34 1018.61 1018.97 1019.26 1019.46 1019.73 1020.02 1020.14 1020.22 1020.29
1014.78 1014.78 1014.85 1014.97 1015.14 1015.46 1015.46 1015.53 1015.66 1015.46 1015.66 1016.29 1016.58 1016.70 1016.78 1016.82 1016.85 1016.85 1016.85 1016.85 1016.82 1016.90 1017.02 1017.22 1017.46 1018.02 1018.05 1018.29 1018.38 1018.41 1018.46 1018.49 1018.49 1018.66 1018.78 1019.05 1019.22 1019.46 1019.70 1019.90 1020.09 1020.26
1014.53 1014.41 1014.49 1014.66 1014.85 1014.90 1014.93 1015.22 1015.49 1015.58 1015.82 1015.97 1015.93 1016.02 1016.26 1016.46 1016.53 1016.58 1016.58 1016.70 1016.73 1016.78 1016.90 1017.02 1017.41 1017.82 1018.02 1018.38 1018.73 1018.82 1018.97 1018.73 1018.70 1018.66 1018.70 1018.90 1019.09 1019.26 1019.46 1019.73 1019.97 1020.17
1014.58 1014.46 1014.58 1014.66 1014.78 1014.61 1014.49 1014.97 1015.49 1015.53 1015.46 1015.49 1015.61 1015.73 1015.93 1016.17 1016.22 1016.34 1016.49 1016.66 1017.09 1017.26 1017.17 1017.09 1017.29 1017.78 1017.93 1018.34 1018.93 1019.34 1019.38 1018.78 1018.66 1018.53 1018.58 1018.70 1018.93 1019.29 1019.41 1019.70 1019.90 1020.09
1014.61 1014.46 1014.34 1014.34 1014.29 1014.38 1014.49 1014.90 1015.17 1015.26 1015.17 1015.22 1015.29 1015.34 1015.53 1015.73 1015.85 1016.05 1016.38 1016.49 1016.66 1017.22 1017.58 1017.58 1017.14 1017.34 1017.73 1018.17 1018.85 1019.09 1018.93 1018.61 1018.58 1018.49 1018.49 1018.66 1018.90 1019.22 1019.46 1019.66 1019.90 1020.09
1014.58 1014.41 1014.26 1014.09 1014.14 1014.34 1014.41 1014.53 1014.78 1014.85 1014.85 1015.02 1015.05 1015.09 1015.26 1015.38 1015.58 1015.70 1015.93 1016.22 1016.53 1016.82 1017.14 1017.41 1016.97 1017.02 1017.38 1017.85 1018.29 1018.53 1018.38 1018.46 1018.38 1018.38 1018.49 1018.70 1018.90 1019.09 1019.26 1019.46 1019.78 1019.93
1014.41 1014.26 1014.17 1014.22 1014.29 1014.22 1014.22 1014.41 1014.70 1014.85 1014.90 1014.90 1014.90 1015.02 1015.09 1015.26 1015.29 1015.41 1015.61 1015.85 1016.14 1016.38 1016.66 1016.70 1016.70 1016.82 1017.02 1017.22 1017.46 1017.61 1017.85 1018.05 1018.17 1018.26 1018.38 1018.53 1018.70 1018.85 1019.02 1019.29 1019.53 1019.85
1014.46 1014.38 1014.26 1014.09 1014.05 1014.05 1014.17 1014.38 1014.53 1014.58 1014.66 1014.66 1014.73 1014.85 1014.90 1015.09 1015.26 1015.26 1015.46 1015.61 1015.85 1016.05 1016.22 1016.29 1016.41 1016.49 1016.70 1016.93 1017.09 1017.26 1017.46 1017.73 1017.97 1018.09 1018.26 1018.41 1018.58 1018.78 1018.97 1019.14 1019.41 1019.66
1014.41 1014.29 1014.26 1014.17 1014.05 1014.05 1014.17 1014.34 1014.38 1014.34 1014.41 1014.41 1014.49 1014.58 1014.73 1014.93 1015.14 1015.26 1015.29 1015.46 1015.58 1015.70 1015.85 1016.02 1016.14 1016.22 1016.38 1016.61 1016.85 1017.14 1017.38 1017.66 1017.85 1018.09 1018.26 1018.46 1018.61 1018.78 1018.93 1019.09 1019.34 1019.49
1014.46 1014.38 1014.22 1014.14 1014.09 1014.14 1014.17 1014.22 1014.26 1014.26 1014.26 1014.34 1014.34 1014.38 1014.58 1014.78 1014.97 1015.14 1015.22 1015.29 1015.34 1015.46 1015.70 1015.85 1016.02 1016.09 1016.29 1016.58 1016.85 1017.14 1017.46 1017.73 1018.02 1018.14 1018.34 1018.53 1018.70 1018.78 1018.90 1019.02 1019.17 1019.38
1014.66 1014.46 1014.26 1014.14 1014.09 1014.09 1014.17 1014.17 1014.17 1014.14 1014.14 1014.17 1014.26 1014.29 1014.41 1014.58 1014.82 1015.09 1015.46 1015.73 1015.93 1016.26 1016.41 1016.26 1015.97 1016.17 1016.38 1016.66 1016.90 1017.17 1017.49 1017.78 1017.97 1018.22 1018.38 1018.66 1018.82 1018.90 1019.02 1019.14 1019.22 1019.34
1014.70 1014.46 1014.29 1014.22 1014.17 1014.14 1014.09 1014.14 1014.09 1014.05 1013.97 1013.97 1014.02 1014.09 1014.22 1014.38 1014.53 1014.70 1015.09 1015.82 1016.29 1016.61 1016.61 1016.26 1016.09 1016.29 1016.49 1016.73 1017.02 1017.29 1017.49 1017.82 1018.02 1018.17 1018.41 1018.70 1018.93 1019.14 1019.26 1019.29 1019.41 1019.53
1014.78 1014.53 1014.34 1014.22 1014.22 1014.14 1014.05 1014.02 1014.02 1014.02 1013.97 1013.85 1013.85 1014.05 1014.22 1014.34 1014.46 1014.90 1015.05 1015.41 1015.85 1016.26 1016.53 1016.22 1016.17 1016.34 1016.53 1016.70 1016.85 1017.14 1017.46 1017.82 1018.05 1018.29 1018.49 1018.73 1019.02 1019.34 1019.49 1019.53 1019.61 1019.73
1014.97 1014.73 1014.49 1014.41 1014.38 1014.22 1014.22 1014.09 1014.02 1013.97 1013.97 1013.82 1014.02 1014.41 1014.70 1014.53 1014.61 1015.22 1015.22 1015.38 1015.66 1015.90 1016.09 1016.22 1016.29 1016.46 1016.73 1016.85 1017.02 1017.14 1017.41 1017.78 1018.05 1018.34 1018.53 1018.78 1019.09 1019.38 1019.58 1019.73 1019.90 1020.05
1015.22 1014.85 1014.66 1014.58 1014.53 1014.46 1014.53 1014.34 1014.26 1014.41 1014.61 1014.49 1014.61 1014.93 1014.97 1014.53 1014.53 1014.85 1015.17 1015.53 1015.78 1015.93 1016.05 1016.26 1016.38 1016.73 1016.93 1017.05 1017.17 1017.29 1017.38 1017.61 1017.93 1018.26 1018.53 1018.73 1018.97 1019.29 1019.46 1019.73 1019.97 1020.14
1015.53 1015.26 1014.97 1014.93 1014.97 1014.82 1014.73 1014.61 1014.58 1014.78 1014.93 1015.02 1015.14 1015.26 1015.22 1014.90 1015.02 1015.02 1015.46 1015.85 1016.14 1016.22 1016.29 1016.46 1016.73 1017.38 1017.22 1017.22 1017.26 1017.46 1017.58 1017.61 1017.82 1018.14 1018.46 1018.73 1018.93 1019.17 1019.38 1019.70 1019.90 1020.05
1015.85 1015.49 1015.41 1015.38 1015.29 1015.17 1014.93 1014.93 1015.05 1015.34 1015.41 1015.41 1015.41 1015.38 1015.41 1015.26 1015.38 1015.53 1015.85 1016.09 1016.22 1016.26 1016.46 1016.78 1017.09 1017.66 1017.53 1017.58 1017.58 1017.66 1017.73 1017.70 1017.85 1018.17 1018.46 1018.73 1018.97 1019.22 1019.46 1019.70 1019.82 1019.97
1016.46 1016.02 1015.82 1015.73 1015.70 1015.70 1015.46 1015.46 1015.58 1015.61 1015.70 1015.82 1015.78 1015.85 1015.70 1015.66 1015.66 1016.05 1016.38 1016.53 1016.61 1016.61 1016.78 1017.26 1017.85 1018.05 1017.70 1017.66 1017.78 1017.82 1017.85 1017.82 1018.05 1018.34 1018.61 1019.02 1019.29 1019.49 1019.61 1019.78 1019.90 1020.02
1017.17 1016.58 1016.17 1016.09 1016.17 1016.22 1016.22 1016.17 1016.26 1016.26 1016.46 1016.41 1016.34 1016.46 1016.26 1016.38 1016.29 1016.38 1016.53 1016.82 1016.97 1017.09 1017.26 1017.61 1018.26 1018.34 1017.93 1017.78 1017.90 1018.05 1017.97 1018.02 1018.29 1018.49 1018.85 1019.26 1019.61 1019.85 1019.97 1020.09 1020.17 1020.29
1017.70 1017.26 1016.73 1016.49 1016.46 1016.53 1016.73 1016.90 1016.82 1016.85 1016.93 1016.78 1016.82 1017.14 1017.05 1016.93 1017.14 1017.09 1017.05 1017.22 1017.29 1017.41 1017.58 1017.97 1018.41 1018.66 1018.53 1018.29 1018.14 1018.14 1018.05 1018.17 1018.49 1018.73 1019.17 1019.58 1019.97 1020.17 1020.22 1020.46 1020.61 1020.61
1018.14 1017.78 1017.41 1017.05 1016.93 1016.85 1017.05 1017.29 1017.29 1017.17 1017.09 1017.09 1017.17 1017.49 1017.58 1017.73 1017.82 1017.90 1017.97 1017.93 1017.93 1017.97 1018.05 1018.29 1018.78 1019.05 1019.05 1018.90 1018.58 1018.34 1018.17 1018.34 1018.70 1019.05 1019.58 1019.90 1020.38 1020.70 1020.85 1021.22 1021.66 1021.58
1018.53 1018.22 1017.97 1017.58 1017.41 1017.49 1017.49 1017.66 1017.82 1017.90 1017.73 1017.49 1017.70 1018.05 1018.41 1018.49 1018.49 1018.58 1018.58 1018.53 1018.61 1018.73 1018.85 1018.78 1019.09 1019.38 1019.46 1019.34 1019.09 1018.78 1018.58 1018.61 1018.90 1019.41 1019.93 1020.46 1020.66 1021.09 1021.38 1021.66 1022.17 1022.49
1018.97 1018.82 1018.58 1018.29 1017.90 1017.82 1017.93 1018.09 1018.26 1018.38 1018.34 1017.90 1018.17 1018.14 1018.61 1018.85 1019.09 1019.29 1019.17 1019.22 1019.17 1019.17 1019.29 1019.34 1019.49 1019.93 1020.14 1019.90 1019.70 1019.58 1019.26 1019.02 1019.22 1019.53 1020.22 1020.73 1020.90 1021.17 1021.90 1022.49 1022.73 1023.14
Thickness
5631 5630 5631 5633 5632 5631 5631 5630 5627 5626 5626 5626 5626 5626 5627 5627 5628 5628 5629 5630 5632 5632 5633 5633 5634 5634 5634 5635 5635 5635 5636 5634 5633 5631 5628 5626 5624 5623 5622 5622 5623 5622
5629 5628 5629 5629 5629 5627 5625 5624 5623 5623 5624 5624 5622 5622 5623 5624 5624 5626 5627 5629 5630 5632 5632 5632 5632 5632 5632 5633 5633 5634 5635 5634 5632 5631 5627 5625 5624 5621 5619 5620 5621 5621
5627 5627 5627 5626 5624 5622 5619 5618 5618 5619 5619 5619 5620 5622 5623 5623 5623 5624 5627 5628 5629 5631 5631 5630 5631 5631 5630 5631 5631 5631 5633 5632 5631 5630 5627 5625 5623 5620 5618 5619 5620 5620
5626 5626 5626 5623 5621 5617 5616 5616 5618 5620 5620 5619 5619 5619 5620 5621 5622 5623 5625 5626 5628 5629 5629 5629 5628 5627 5626 5627 5627 5628 5629 5629 5629 5629 5626 5625 5624 5621 5619 5619 5619 5618
5623 5624 5624 5622 5619 5618 5620 5622 5622 5623 5623 5620 5619 5618 5617 5619 5620 5621 5622 5624 5626 5628 5628 5628 5625 5624 5623 5622 5621 5622 5623 5624 5625 5626 5625 5625 5623 5621 5620 5619 5618 5617
5620 5620 5621 5620 5620 5622 5624 5623 5622 5622 5622 5620 5621 5620 5619 5620 5620 5621 5621 5622 5623 5624 5626 5627 5624 5622 5621 5619 5616 5615 5616 5618 5621 5623 5623 5623 5622 5621 5620 5618 5617 5616
5615 5617 5618 5617 5619 5622 5622 5620 5619 5619 5621 5620 5622 5621 5620 5620 5620 5620 5620 5619 5619 5618 5620 5623 5622 5620 5620 5617 5612 5609 5611 5615 5619 5621 5621 5622 5620 5619 5618 5617 5615 5614
5611 5613 5615 5616 5617 5619 5619 5618 5617 5617 5619 5620 5621 5622 5621 5621 5621 5620 5620 5619 5618 5616 5615 5618 5621 5621 5619 5616 5612 5609 5611 5615 5617 5618 5619 5620 5618 5617 5616 5615 5614 5612
5608 5610 5612 5613 5614 5616 5616 5617 5616 5616 5618 5619 5620 5621 5621 5621 5621 5621 5620 5619 5618 5616 5615 5616 5619 5621 5620 5617 5614 5612 5613 5614 5615 5617 5617 5616 5616 5615 5614 5614 5612 5611
5606 5607 5609 5610 5611 5614 5615 5615 5614 5614 5615 5617 5618 5620 5620 5620 5620 5620 5621 5619 5618 5618 5616 5617 5619 5620 5620 5618 5617 5616 5615 5614 5615 5615 5616 5615 5615 5614 5613 5613 5612 5610
5604 5605 5607 5608 5610 5612 5613 5612 5612 5613 5615 5617 5618 5618 5618 5619 5619 5620 5620 5619 5618 5618 5617 5618 5619 5620 5620 5619 5618 5617 5615 5614 5614 5614 5614 5613 5613 5612 5612 5612 5611 5609
5603 5604 5606 5607 5609 5610 5611 5610 5611 5613 5615 5616 5618 5618 5617 5617 5617 5617 5618 5618 5618 5617 5617 5618 5618 5619 5620 5619 5617 5616 5614 5613 5612 5611 5611 5611 5610 5610 5610 5609 5609 5607
5602 5604 5605 5607 5608 5609 5609 5610 5610 5612 5615 5616 5616 5616 5616 5616 5615 5615 5615 5616 5616 5616 5615 5616 5617 5617 5617 5616 5615 5613 5611 5610 5609 5608 5608 5607 5607 5607 5608 5607 5607 5606
5601 5602 5604 5606 5607 5607 5608 5608 5609 5611 5613 5614 5614 5615 5615 5615 5614 5614 5612 5611 5610 5610 5609 5612 5614 5614 5613 5613 5611 5610 5609 5607 5606 5605 5605 5604 5604 5604 5604 5604 5604 5604
5601 5602 5604 5605 5605 5606 5606 5607 5608 5609 5611 5613 5614 5615 5615 5614 5614 5614 5611 5608 5606 5604 5604 5608 5611 5610 5610 5609 5608 5607 5606 5604 5603 5603 5602 5601 5600 5600 5600 5601 5600 5600
5600 5601 5603 5603 5603 5604 5604 5605 5606 5607 5609 5612 5614 5613 5612 5612 5612 5611 5609 5608 5605 5603 5603 5606 5608 5607 5606 5606 5606 5605 5603 5601 5600 5600 5599 5598 5597 5596 5596 5596 5596 5595
5598 5600 5601 5601 5601 5601 5602 5603 5604 5604 5606 5609 5610 5607 5605 5608 5609 5607 5606 5606 5605 5604 5603 5604 5604 5604 5603 5602 5602 5603 5601 5599 5598 5597 5596 5595 5594 5593 5592 5591 5591 5590
5596 5598 5599 5599 5599 5598 5598 5599 5601 5600 5599 5601 5602 5599 5600 5605 5607 5605 5603 5602 5601 5601 5601 5601 5600 5599 5599 5599 5599 5599 5598 5598 5597 5595 5594 5593 5592 5591 5590 5588 5587 5586
5592 5594 5596 5596 5595 5594 5596 5596 5596 5594 5592 5594 5595 5594 5596 5600 5601 5601 5600 5597 5596 5597 5597 5597 5596 5594 5595 5596 5596 5595 5595 5596 5595 5593 5592 5591 5589 5588 5587 5585 5584 5584
5588 5590 5591 5591 5591 5591 5592 5592 5591 5589 5588 5589 5590 5591 5593 5595 5595 5595 5594 5592 5592 5593 5593 5592 5591 5589 5590 5592 5591 5591 5592 5592 5592 5591 5589 5587 5586 5584 5584 5582 5582 5581
5583 5585 5586 5586 5586 5586 5586 5586 5586 5584 5583 5585 5585 5586 5588 5590 5590 5589 5587 5586 5586 5588 5588 5586 5584 5584 5586 5587 5588 5587 5588 5588 5588 5587 5585 5583 5581 5580 5579 5578 5578 5579
5576 5580 5582 5582 5581 5581 5580 5579 5579 5579 5578 5578 5579 5580 5581 5582 5582 5582 5582 5582 5581 5582 5582 5580 5578 5578 5581 5583 5583 5583 5584 5584 5583 5582 5581 5579 5576 5574 5574 5573 5573 5574
5571 5574 5576 5578 5577 5576 5574 5573 5573 5573 5573 5573 5573 5573 5574 5575 5574 5575 5575 5576 5576 5577 5577 5575 5573 5572 5574 5577 5578 5579 5580 5580 5579 5578 5576 5573 5571 5570 5569 5568 5567 5567
5566 5568 5571 5573 5573 5572 5570 5567 5567 5567 5568 5568 5568 5566 5565 5565 5566 5567 5567 5568 5569 5569 5570 5570 5568 5566 5567 5569 5572 5574 5575 5575 5574 5572 5569 5567 5565 5563 5562 5561 5559 5559
5561 5564 5566 5567 5568 5567 5565 5563 5561 5561 5562 5563 5563 5560 5558 5557 5558 5559 5560 5561 5562 5563 5563 5563 5562 5560 5560 5561 5564 5567 5569 5569 5569 5566 5563 5561 5559 5558 5556 5554 5552 5550
5557 5558 5559 5561 5563 5562 5561 5559 5557 5555 5555 5558 5558 5556 5554 5553 5551 5551 5552 5554 5555 5555 5556 5556 5555 5553 5552 5553 5555 5558 5560 5562 5563 5560 5557 5555 5553 5552 5549 5546 5543 5542